Regional Weather Roundup
Issued by NWS

Home | Current Version | Previous Version | Graphics & Text | Print | Product List | Glossary On
Versions: 1 2 3 4 5 6 7 8 9 10 11 12 13 14 15 16 17 18 19 20 21 22 23 24 25 26 27 28 29 30 31 32 33 34 35 36 37 38 39 40 41 42 43 44 45 46 47 48 49 50
000
ASUS43 KFSD 100810
RWRSD

WEATHER ROUNDUP FOR SOUTH DAKOTA
NATIONAL WEATHER SERVICE SIOUX FALLS SD
200 AM CST SAT DEC 10 2016

NOTE: "FAIR" INDICATES FEW OR NO CLOUDS BELOW 12,000 FEET WITH NO
SIGNIFICANT WEATHER AND/OR OBSTRUCTIONS TO VISIBILITY.


SDZ001>005-009-010-012>017-100900-
NORTHWEST AND NORTH CENTRAL SOUTH DAKOTA

CITY           SKY/WX    TMP DP  RH WIND       PRES   REMARKS
BUFFALO          N/A     -2  -6  83 SE12      30.11F WCI -20
FAITH            N/A     -5  -8  87 SE9       30.30F WCI -22
MOBRIDGE       CLOUDY    -6 -12  75 E7        30.41F WCI -20
$$

SDZ012>016-024>037-041>051-057-063-072>074-100900-
SOUTHWEST AND SOUTH CENTRAL SOUTH DAKOTA

CITY           SKY/WX    TMP DP  RH WIND       PRES   REMARKS
RAPID CTY ARPT LGT SNOW   3  -2  79 SE15      30.18F WCI -16
PIERRE         CLOUDY    -3  -9  75 NE8       30.42F WCI -18
CUSTER         LGT SNOW  11   6  81 CALM      29.97F
ELLSWORTH AFB  FLURRIES   3  -2  81 SE15      30.15F WCI -16
PHILIP         FLURRIES   1  -2  87 E13       30.33F WCI -17
PINE RIDGE     CLOUDY     6   2  83 E8        30.19F WCI  -7
SPEARFISH      FLURRIES   1  -4  78 E3        30.07F
WINNER         CLOUDY     5   1  83 NE5       30.40F WCI  -4
$$

SDZ004>011-016>023-039-040-100900-
NORTHEAST SOUTH DAKOTA

CITY           SKY/WX    TMP DP  RH WIND       PRES   REMARKS
ABERDEEN       CLOUDY    -7 -15  68 CALM      30.52F
WATERTOWN      CLOUDY    -5  -8  87 CALM      30.43F
BROOKINGS      FLURRIES   3  -3  76 NE8       30.43F WCI -10
SISSETON         N/A     -8 -13  78 N6        30.52F WCI -21
$$

SDZ017-020-022-023-036>040-048>070-100900-
SOUTHEAST SOUTH DAKOTA

CITY           SKY/WX    TMP DP  RH WIND       PRES   REMARKS
SIOUX FALLS    CLOUDY    10   6  84 NE8       30.45F WCI  -2
HURON          CLEAR      1  -2  87 NW7       30.51R WCI -12
CHAMBERLAIN    CLOUDY     4   0  83 NE3       30.45F
MITCHELL       CLOUDY     7   2  80 N7        30.50S WCI  -5
YANKTON        PTCLDY    10   5  79 NW8       30.46S WCI  -1
$$

ABBREVIATIONS USED IN REMARKS
   TC - TEMPERATURE IN CELSIUS
  WCI - WIND CHILL INDEX
   HX - HEAT INDEX
  VSB - VISIBILITY




USA.gov is the U.S. government's official web portal to all federal, state and local government web resources and services.